Weather History for Racine, WI

Change the Weather History Date:

Monday, January 13, 2014

  Actual Average Record
Temperature  
Mean Temperature 35 °F -  
Max Temperature 42 °F 29 °F 56 °F (1961)
Min Temperature 27 °F 14 °F -10 °F (1963)
Degree Days  
Heating Degree Days 30    
Moisture  
Dew Point 30 °F    
Average Humidity 76    
Maximum Humidity 86    
Minimum Humidity 65    
Precipitation  
Precipitation 0.00 in - - ()
Sea Level Pressure  
Sea Level Pressure 29.62 in    
Wind  
Wind Speed 9 mph (WSW)    
Max Wind Speed 14 mph    
Max Gust Speed 20 mph    
Visibility 10 miles    
Events      
Averages and records for this station are not official NWS values.
T = Trace of Precipitation, MM = Missing Value Source: NWS Daily Summary

Daily Weather History Graph

Daily Weather History Graph

Search for Another Location

Airport:

Trip Planner

Search our weather history database for the weather conditions in past years. The results will help you decide how hot, cold, wet, or windy it might be!

Date:

Astronomy

Jan. 13, 2014 Rise Set
Actual Time 7:19 AM CST 4:40 PM CST
Civil Twilight 6:48 AM CST 5:11 PM CST
Nautical Twilight 6:13 AM CST 5:46 PM CST
Astronomical Twilight 5:39 AM CST 6:20 PM CST
Moon 2:55 PM CST (1/13) 5:07 AM CST (1/13)
Length of Visible Light 10h 23m
Length of Day
9h 20m
Waxing Gibbous, 95% of the Moon is Illuminated
Jan 13
Waxing Gibbous
Jan 15
Full
Jan 23
Last Quarter
Jan 30
New
Feb 6
First Quarter

Hourly Weather History & Observations

Time (CST) Temp. Windchill Dew Point Humidity Pressure Visibility Wind Dir Wind Speed Gust Speed Precip Events Conditions
12:53 AM 41.0 °F 35.2 °F 32.0 °F 70% 29.57 in 10.0 mi SW 9.2 mph - N/A   Clear
1:53 AM 39.9 °F 33.4 °F 32.0 °F 73% 29.58 in 10.0 mi SW 10.4 mph - N/A   Clear
2:53 AM 37.9 °F 33.5 °F 32.0 °F 79% 29.59 in 10.0 mi SW 5.8 mph - N/A   Clear
3:53 AM 37.9 °F 31.5 °F 32.0 °F 79% 29.57 in 10.0 mi SW 9.2 mph - N/A   Clear
4:53 AM 37.9 °F 30.9 °F 32.0 °F 79% 29.54 in 10.0 mi SW 10.4 mph - N/A   Clear
5:53 AM 37.0 °F 31.0 °F 32.0 °F 82% 29.54 in 10.0 mi WSW 8.1 mph - N/A   Clear
6:53 AM 36.0 °F 30.3 °F 32.0 °F 86% 29.54 in 10.0 mi WSW 6.9 mph - N/A   Clear
7:53 AM 35.1 °F 28.6 °F 30.9 °F 85% 29.55 in 10.0 mi SW 8.1 mph - N/A   Clear
8:53 AM 37.0 °F 31.0 °F 32.0 °F 82% 29.57 in 10.0 mi WSW 8.1 mph - N/A   Overcast
9:53 AM 37.0 °F 31.6 °F 32.0 °F 82% 29.57 in 10.0 mi WSW 6.9 mph - N/A   Overcast
10:53 AM 37.9 °F 31.5 °F 32.0 °F 79% 29.56 in 10.0 mi WSW 9.2 mph - N/A   Overcast
11:53 AM 41.0 °F 34.7 °F 32.0 °F 70% 29.53 in 10.0 mi WSW 10.4 mph - N/A   Mostly Cloudy
12:53 PM 42.1 °F 34.9 °F 32.0 °F 67% 29.54 in 10.0 mi West 13.8 mph 19.6 mph N/A   Overcast
1:53 PM 42.1 °F 36.6 °F 32.0 °F 67% 29.55 in 10.0 mi West 9.2 mph 17.3 mph N/A   Scattered Clouds
2:53 PM 42.1 °F 36.1 °F 30.9 °F 65% 29.59 in 10.0 mi West 10.4 mph - N/A   Clear
3:53 PM 41.0 °F 35.8 °F 30.0 °F 65% 29.62 in 10.0 mi West 8.1 mph - N/A   Clear
4:53 PM 39.0 °F 33.4 °F 30.0 °F 70% 29.65 in 10.0 mi WNW 8.1 mph - N/A   Clear
5:53 PM 36.0 °F 29.0 °F 28.9 °F 76% 29.68 in 10.0 mi WNW 9.2 mph - N/A   Clear
6:53 PM 34.0 °F 28.0 °F 27.0 °F 75% 29.71 in 10.0 mi West 6.9 mph - N/A   Clear
7:53 PM 32.0 °F 25.6 °F 27.0 °F 82% 29.72 in 7.0 mi WSW 6.9 mph - N/A   Clear
8:53 PM 30.0 °F 23.2 °F 25.0 °F 82% 29.73 in 10.0 mi WSW 6.9 mph - N/A   Clear
9:53 PM 28.9 °F 21.1 °F 21.9 °F 75% 29.75 in 10.0 mi WSW 8.1 mph - N/A   Clear
10:53 PM 28.0 °F 20.8 °F 21.0 °F 75% 29.76 in 10.0 mi WSW 6.9 mph - N/A   Clear
11:53 PM 27.0 °F 20.5 °F 19.9 °F 75% 29.76 in 10.0 mi WSW 5.8 mph - N/A   Clear